DW7898 Weather Reports


time (UTC)temp
C
wind
direction
speed
KPH
gust
KPH
rain 1hr
cm
rain 24hr
cm
rain mn
cm
humidity
%
barometer
mb
20260508153340 19 113 8.0 17.7 0.00 0.00 0.00 60 1014.7
20260508152358 19 149 6.4 19.3 0.00 0.00 0.00 59 1014.8
20260508151338 19 333 3.2 16.1 0.00 0.00 0.00 62 1014.7
20260508150350 19 155 3.2 20.9 0.00 0.00 0.00 60 1014.5
20260508145346 19 174 3.2 12.9 0.00 0.00 0.00 60 1014.6
20260508144354 19 125 8.0 17.7 0.00 0.00 0.00 59 1014.6
20260508143355 19 123 9.7 16.1 0.00 0.00 0.00 58 1014.6
20260508142352 20 128 11.3 19.3 0.00 0.00 0.00 58 1014.7
20260508141354 20 123 6.4 14.5 0.00 0.00 0.00 55 1014.8
20260508140337 20 278 3.2 12.9 0.00 0.00 0.00 56 1014.9
20260508135340 20 149 4.8 12.9 0.00 0.00 0.00 56 1015.0
20260508134346 20 186 3.2 14.5 0.00 0.00 0.00 57 1015.1
20260508133351 20 131 4.8 14.5 0.00 0.00 0.00 54 1015.3
20260508132350 20 220 3.2 12.9 0.00 0.00 0.00 55 1015.4
20260508131355 20 222 3.2 11.3 0.00 0.00 0.00 55 1015.3
20260508130341 20 69 8.0 16.1 0.00 0.00 0.00 56 1015.2
20260508125358 19 129 6.4 16.1 0.00 0.00 0.00 57 1015.4
20260508124356 19 134 8.0 22.5 0.00 0.00 0.00 56 1015.5
20260508123354 19 121 4.8 16.1 0.00 0.00 0.00 54 1015.4
20260508122354 19 135 4.8 16.1 0.00 0.00 0.00 54 1015.4
20260508121340 19 159 6.4 12.9 0.00 0.00 0.00 56 1015.4
20260508120340 19 153 3.2 12.9 0.00 0.00 0.00 55 1015.5
20260508115340 18 120 6.4 17.7 0.00 0.00 0.00 56 1015.4
20260508114347 18 108 12.9 17.7 0.00 0.00 0.00 57 1015.4
20260508113350 19 166 6.4 17.7 0.00 0.00 0.00 58 1015.3
20260508112343 19 131 8.0 14.5 0.00 0.00 0.00 57 1015.2
20260508111347 19 74 8.0 14.5 0.00 0.00 0.00 58 1015.3
20260508110354 19 111 11.3 14.5 0.00 0.00 0.00 56 1015.2
20260508105356 18 128 6.4 12.9 0.00 0.00 0.00 56 1015.2
20260508104339 19 155 3.2 16.1 0.00 0.00 0.00 58 1015.3
20260508103344 19 153 3.2 14.5 0.00 0.00 0.00 58 1015.5
20260508102342 19 100 1.6 12.9 0.00 0.00 0.00 59 1015.5
20260508101353 18 136 3.2 16.1 0.00 0.00 0.00 60 1015.6
20260508100338 18 104 6.4 19.3 0.00 0.00 0.00 60 1015.7
20260508095357 18 193 3.2 12.9 0.00 0.00 0.00 64 1015.6
20260508094357 18 133 8.0 12.9 0.00 0.00 0.00 64 1015.7
20260508093338 18 160 4.8 14.5 0.00 0.00 0.00 63 1015.6
20260508092356 18 115 6.4 12.9 0.00 0.00 0.00 62 1015.6
20260508091338 18 128 4.8 12.9 0.00 0.00 0.00 65 1015.3
20260508090344 18 249 6.4 11.3 0.00 0.00 0.00 64 1015.3
20260508085345 18 273 4.8 8.0 0.00 0.00 0.00 63 1015.3
20260508084352 17 239 3.2 11.3 0.00 0.00 0.00 63 1015.3
20260508083353 17 0 1.6 6.4 0.00 0.00 0.00 62 1015.1
20260508082341 17 0 0.0 6.4 0.00 0.00 0.00 62 1015.0
20260508081349 17 16 0.0 6.4 0.00 0.00 0.00 63 1014.8
20260508080349 16 84 0.0 6.4 0.00 0.00 0.00 66 1014.7
20260508075350 16 85 1.6 8.0 0.00 0.00 0.00 69 1014.9
20260508074354 15 76 3.2 6.4 0.00 0.00 0.00 72 1014.8
20260508073354 15 23 0.0 9.7 0.00 0.00 0.00 75 1014.9
20260508072336 14 94 4.8 6.4 0.00 0.00 0.00 78 1014.8
20260508071357 13 63 3.2 8.0 0.00 0.00 0.00 80 1014.6
20260508070357 13 1 4.8 6.4 0.00 0.00 0.00 81 1014.4
20260508065357 13 24 3.2 6.4 0.00 0.00 0.00 82 1014.5
20260508064357 12 27 0.0 6.4 0.00 0.00 0.00 83 1014.5
20260508063343 12 65 1.6 4.8 0.00 0.00 0.00 83 1014.4
20260508062337 12 66 1.6 3.2 0.00 0.00 0.00 84 1014.5
20260508061339 12 66 0.0 4.8 0.00 0.00 0.00 84 1014.4
20260508060342 12 67 1.6 3.2 0.00 0.00 0.00 84 1014.4
20260508055341 11 67 1.6 4.8 0.00 0.00 0.00 84 1014.4
20260508054359 11 72 0.0 4.8 0.00 0.00 0.00 84 1014.3
20260508053356 11 73 0.0 3.2 0.00 0.00 0.00 84 1014.2
20260508052354 11 76 0.0 4.8 0.00 0.00 0.00 84 1014.0
20260508051337 11 132 0.0 3.2 0.00 0.00 0.00 84 1013.8
20260508050342 11 132 0.0 1.6 0.00 0.00 0.00 84 1013.9
20260508045344 11 132 0.0 1.6 0.00 0.00 0.00 83 1013.7
20260508044351 12 132 0.0 0.0 0.00 0.00 0.00 83 1013.8
20260508043355 12 132 0.0 1.6 0.00 0.00 0.00 83 1013.7
20260508042346 12 132 0.0 3.2 0.00 0.00 0.00 83 1013.7
20260508041351 12 132 1.6 4.8 0.00 0.00 0.00 82 1013.5
20260508040338 12 132 0.0 0.0 0.00 0.00 0.00 82 1013.4
20260508035351 12 132 0.0 0.0 0.00 0.00 0.00 82 1013.3
20260508034356 12 132 0.0 0.0 0.00 0.00 0.00 81 1013.4
20260508033338 12 132 0.0 3.2 0.00 0.00 0.00 81 1013.4
20260508032350 12 132 0.0 0.0 0.00 0.00 0.00 81 1013.4
20260508031356 12 132 0.0 1.6 0.00 0.00 0.00 80 1013.4
20260508030356 12 132 0.0 1.6 0.00 0.00 0.00 80 1013.5
20260508025354 13 132 0.0 3.2 0.00 0.00 0.00 80 1013.4
20260508024340 13 132 0.0 0.0 0.00 0.00 0.00 80 1013.4
20260508023343 13 132 0.0 0.0 0.00 0.00 0.00 80 1013.6
20260508022342 13 132 0.0 3.2 0.00 0.00 0.00 79 1013.5
20260508021350 13 132 1.6 4.8 0.00 0.00 0.00 79 1013.6
20260508020353 13 132 1.6 4.8 0.00 0.00 0.00 78 1013.7
20260508015349 13 132 0.0 1.6 0.00 0.00 0.00 77 1013.8
20260508014351 13 133 0.0 1.6 0.00 0.00 0.00 77 1013.9
20260508013337 13 133 0.0 1.6 0.00 0.00 0.00 77 1014.0
20260508012356 13 132 0.0 0.0 0.00 0.00 0.00 76 1014.0
20260508011358 13 132 0.0 3.2 0.00 0.00 0.00 76 1014.1
20260508010338 13 133 1.6 3.2 0.00 0.00 0.00 76 1014.2
20260508005355 13 133 0.0 0.0 0.00 0.00 0.00 76 1014.2
20260508004354 14 133 0.0 3.2 0.00 0.00 0.00 75 1014.2
20260508003356 14 133 0.0 1.6 0.00 0.00 0.00 74 1014.3
20260508002354 14 133 1.6 4.8 0.00 0.00 0.00 74 1014.3
20260508001340 14 133 0.0 0.0 0.00 0.00 0.00 74 1014.5
20260508000335 14 133 0.0 0.0 0.00 0.00 0.00 73 1014.6
20260507235359 14 133 0.0 0.0 0.00 0.00 0.00 73 1014.6
20260507234359 14 133 0.0 0.0 0.00 0.00 0.00 73 1014.7
20260507233342 14 133 0.0 0.0 0.00 0.00 0.00 72 1014.8
20260507232357 14 133 0.0 0.0 0.00 0.00 0.00 71 1014.7
20260507231337 14 133 0.0 1.6 0.00 0.00 0.00 71 1014.9
20260507230342 14 133 0.0 4.8 0.00 0.00 0.00 71 1015.0
20260507225338 14 133 3.2 4.8 0.00 0.00 0.00 71 1015.0
20260507224342 15 133 0.0 1.6 0.00 0.00 0.00 71 1015.2
20260507223348 15 133 0.0 3.2 0.00 0.00 0.00 72 1015.3
20260507222343 15 133 0.0 0.0 0.00 0.00 0.00 72 1015.3
20260507221350 15 133 0.0 3.2 0.00 0.00 0.00 72 1015.2
20260507220337 15 133 0.0 3.2 0.00 0.00 0.00 73 1015.2
20260507215358 15 134 0.0 1.6 0.00 0.00 0.00 72 1015.2
20260507214352 15 134 0.0 3.2 0.00 0.00 0.00 72 1015.2
20260507213356 15 134 4.8 6.4 0.00 0.00 0.00 72 1015.3
20260507212356 15 131 0.0 0.0 0.00 0.00 0.00 73 1015.2
20260507211357 15 131 0.0 3.2 0.00 0.00 0.00 73 1015.3
20260507210337 15 131 3.2 6.4 0.00 0.00 0.00 73 1015.2
20260507205338 16 131 4.8 8.0 0.00 0.00 0.00 72 1015.3
20260507204339 16 104 0.0 0.0 0.00 0.00 0.00 71 1015.1
20260507203340 16 104 0.0 0.0 0.00 0.00 0.00 71 1015.2
20260507202341 16 104 0.0 3.2 0.00 0.00 0.00 70 1015.2
20260507201355 16 105 0.0 3.2 0.00 0.00 0.00 68 1015.0
20260507200357 16 105 3.2 6.4 0.00 0.00 0.00 68 1014.8
20260507195353 16 109 1.6 4.8 0.00 0.00 0.00 67 1014.7
20260507194355 16 109 0.0 6.4 0.00 0.00 0.00 66 1014.6
20260507193353 17 111 3.2 6.4 0.00 0.00 0.00 65 1014.4
20260507192356 17 133 0.0 4.8 0.00 0.00 0.00 64 1014.3
20260507191357 17 123 0.0 3.2 0.00 0.00 0.00 63 1014.2
20260507190340 17 118 1.6 4.8 0.00 0.00 0.00 62 1014.0
20260507185359 17 118 0.0 4.8 0.00 0.00 0.00 61 1014.0
20260507184337 17 118 0.0 8.0 0.00 0.00 0.00 62 1013.9
20260507183341 17 137 1.6 6.4 0.00 0.00 0.00 63 1013.8
20260507182357 17 153 3.2 11.3 0.00 0.00 0.00 63 1013.5
20260507181340 17 139 1.6 11.3 0.00 0.00 0.00 64 1013.6
20260507180344 17 141 4.8 11.3 0.00 0.00 0.00 64 1013.4
20260507175345 17 100 6.4 16.1 0.00 0.00 0.00 64 1013.4
20260507174351 17 109 4.8 14.5 0.00 0.00 0.00 63 1013.4
20260507173356 18 168 6.4 11.3 0.00 0.00 0.00 62 1013.3
20260507172350 17 141 4.8 12.9 0.00 0.00 0.00 61 1013.3
20260507171357 17 85 8.0 12.9 0.00 0.00 0.00 62 1013.2
20260507170337 17 123 4.8 14.5 0.00 0.00 0.00 62 1013.1
20260507165357 17 140 6.4 14.5 0.00 0.00 0.00 62 1013.1
20260507164358 18 109 6.4 11.3 0.00 0.00 0.00 61 1013.1
20260507163343 18 113 8.0 12.9 0.00 0.00 0.00 61 1013.0
20260507162355 17 113 9.7 16.1 0.00 0.00 0.00 59 1012.9
20260507161339 18 107 3.2 19.3 0.00 0.00 0.00 59 1012.9
20260507160355 17 163 3.2 19.3 0.00 0.00 0.00 59 1012.9
20260507155352 17 127 9.7 20.9 0.00 0.00 0.00 60 1013.0
20260507154337 17 111 4.8 22.5 0.00 0.00 0.00 59 1013.1